[[{"header":{"parameterUnit":"m.s-1","parameterCategory":1,"la1":30.2991,"la2":30.254,"lo1":-89.0895,"lo2":-89.0444,"dy":0.0017,"dx":0.0017,"nx":28,"ny":28,"refTime":"2023-08-25T09:00:00:Z","depth":0,"parameterNumber":2,"parameterNumberName":"U-component_of_WINDS"},"data":[0,0,0,0,0,0,0,0,0,0,0,0,0,0,0,0,0,0,0,0,0,0,0,0,0,0,0,0,0,0,0,0,0,0,0,0,0,0,0,0,0,0,0,0,0,0,0,0,0,0,0,0,0,0,0,0,0,0,-1.2683,-1.2683,0,-1.2652,-1.2652,-1.2652,-1.2577,-1.2575,-1.2574,-1.2572,-1.2542,-1.2543,-1.2544,0,0,0,0,0,0,0,0,0,0,0,0,0,-1.2678,-1.2679,-1.2683,-1.2683,-1.2682,-1.2652,-1.2652,-1.2651,-1.2577,-1.2575,-1.2573,-1.2572,-1.2542,-1.2543,-1.2544,0,0,0,0,0,0,0,0,0,0,0,0,0,-1.2667,-1.2679,-1.2683,-1.2642,-1.2638,-1.2652,-1.2652,-1.2651,-1.2578,-1.2575,-1.2573,-1.2571,-1.2542,-1.2543,-1.2544,-1.2597,0,0,-1.2547,-1.2547,0,0,0,0,0,0,0,0,-1.2668,-1.2668,-1.2648,-1.2644,-1.264,-1.2616,-1.2639,-1.2633,-1.2578,-1.26,-1.2572,-1.257,-1.2569,-1.2568,-1.2567,-1.2596,-1.2594,-1.2547,-1.2548,-1.2548,-1.2548,0,0,0,0,0,0,0,-1.2669,-1.2669,-1.2671,-1.2648,-1.2643,-1.2625,-1.2621,-1.2638,-1.2598,-1.2598,-1.2593,-1.259,-1.2566,-1.2566,-1.2566,-1.2594,-1.2547,-1.2548,-1.2549,-1.2549,-1.2664,-1.2666,0,0,0,0,0,0,-1.2676,-1.267,-1.2672,-1.267,-1.2648,-1.2627,-1.2622,-1.2626,-1.2598,-1.2591,-1.2592,-1.2587,-1.2566,-1.2565,-1.2564,-1.2624,-1.2548,-1.2549,-1.255,-1.2661,-1.2664,-1.2667,0,0,0,0,0,0,-1.2676,-1.2676,-1.2673,-1.2668,-1.2666,-1.2629,-1.2634,-1.2627,-1.2627,-1.2593,-1.2586,-1.2599,-1.2564,-1.2563,-1.2589,-1.2622,-1.255,-1.255,-1.2658,-1.2662,-1.2666,-1.2745,0,0,0,0,0,0,-1.2676,-1.2677,-1.2697,-1.2669,-1.2667,-1.2699,-1.2636,-1.2628,-1.2628,-1.2621,-1.2598,-1.2592,-1.2562,-1.2588,-1.259,-1.2622,-1.2551,-1.2655,-1.266,-1.2664,-1.2739,-1.2751,-1.2761,0,0,0,0,0,-1.2676,-1.2721,-1.2698,-1.2699,-1.2691,-1.2701,-1.2699,-1.2663,-1.2631,-1.2651,-1.2629,-1.2593,-1.2618,-1.2591,-1.2593,-1.2626,-1.2653,-1.2659,-1.2664,-1.2734,-1.2749,-1.2761,0,0,0,0,0,0,-1.2754,-1.2717,-1.2691,-1.2728,-1.2718,-1.2688,-1.2712,-1.268,-1.2679,-1.2672,-1.2628,-1.2623,-1.2656,-1.2643,-1.2614,-1.2675,-1.263,-1.2636,-1.2682,-1.2696,-1.2706,-1.2709,-1.2552,0,0,0,0,0,-1.2775,-1.2786,-1.2753,-1.2789,-1.2785,-1.2749,-1.2752,-1.2725,-1.2713,-1.2709,-1.2689,-1.2679,-1.2685,-1.2689,-1.2693,-1.2737,-1.2731,-1.276,-1.2771,-1.278,-1.2786,-1.2808,-1.282,-1.2685,-1.2685,-1.2685,0,0,-1.282,-1.2801,-1.281,-1.2804,-1.2793,-1.2805,-1.2746,-1.2762,-1.277,-1.2711,-1.2734,-1.272,-1.2706,-1.2741,-1.2755,-1.2732,-1.2822,-1.2787,-1.2795,-1.2795,-1.2815,-1.2828,-1.2839,-1.2689,-1.2688,-1.2688,0,0,-1.2907,-1.2894,-1.2922,-1.2912,-1.2896,-1.2871,-1.2878,-1.2853,-1.2841,-1.2863,-1.2819,-1.2828,-1.2839,-1.2831,-1.2828,-1.2911,-1.2877,-1.2913,-1.297,-1.2992,-1.3002,-1.3012,-1.3041,-1.3052,-1.2919,-1.2919,-1.292,0,-1.2965,-1.2981,-1.2941,-1.2959,-1.2957,-1.2903,-1.2931,-1.2924,-1.291,-1.291,-1.2883,-1.2895,-1.2882,-1.2914,-1.2934,-1.2934,-1.294,-1.2916,-1.3004,-1.3013,-1.3021,-1.3048,-1.306,-1.2924,-1.2923,-1.2923,-1.2922,0,-1.3053,-1.3065,-1.3089,-1.3076,-1.3077,-1.3101,-1.3064,-1.307,-1.3043,-1.3021,-1.3045,-1.3027,-1.3025,-1.3031,-1.3005,-1.3059,-1.3045,-1.3012,-1.2965,-1.3039,-1.3064,-1.3074,-1.293,-1.2929,-1.2927,-1.2926,0,0,-1.3189,-1.3153,-1.3163,-1.3156,-1.3133,-1.3142,-1.3162,-1.316,-1.3166,-1.3158,-1.3174,-1.3184,-1.3152,-1.3149,-1.3122,-1.3141,-1.3207,-1.3105,-1.3104,-1.3125,-1.3266,-1.3291,-1.3304,-1.3185,-1.3186,-1.3188,-1.3267,0,-1.3271,-1.3304,-1.3268,-1.3308,-1.3318,-1.3266,-1.3284,-1.3273,-1.3253,-1.3259,-1.3237,-1.3245,-1.3203,-1.3201,-1.3218,-1.3196,-1.3235,-1.319,-1.3199,-1.32,-1.3205,-1.3317,-1.3344,-1.3419,-1.3277,-1.3278,-1.3279,0,-1.3372,-1.3367,-1.3408,-1.3382,-1.3385,-1.3402,-1.3396,-1.3403,-1.3388,-1.3373,-1.3369,-1.3335,-1.3353,-1.3307,-1.3332,-1.3302,-1.3303,-1.3293,-1.3295,-1.3295,-1.3245,-1.332,-1.3443,-1.3454,-1.3295,-1.3293,-1.3292,0,-1.3467,-1.3471,-1.3496,-1.3492,-1.3462,-1.3475,-1.3463,-1.3446,-1.3447,-1.3442,-1.3442,-1.344,-1.3439,-1.3439,-1.3405,-1.3375,-1.3434,-1.3385,-1.3422,-1.3423,-1.3437,-1.3436,-1.3562,-1.3438,-1.3438,-1.3438,-1.3437,0,-1.3562,-1.359,-1.3538,-1.3554,-1.3583,-1.3541,-1.357,-1.3553,-1.3539,-1.355,-1.3505,-1.3517,-1.3472,-1.3479,-1.3453,-1.3477,-1.3477,-1.3465,-1.3458,-1.3469,-1.3471,-1.347,-1.3464,-1.3441,-1.344,-1.3439,-1.3439,0,-1.3674,-1.3641,-1.3664,-1.3634,-1.3627,-1.365,-1.3623,-1.3637,-1.3614,-1.3628,-1.3629,-1.3594,-1.3599,-1.3566,-1.3566,-1.3548,-1.3585,-1.3569,-1.359,-1.3585,-1.3623,-1.362,-1.3752,-1.3767,-1.3634,-1.3636,-1.3637,0,-1.3737,-1.3757,-1.3728,-1.3732,-1.3722,-1.3729,-1.3729,-1.3689,-1.3691,-1.3675,-1.369,-1.3692,-1.3691,-1.3703,-1.3677,-1.3676,-1.366,-1.3706,-1.3659,-1.367,-1.366,-1.366,-1.3661,-1.3716,-1.3718,-1.3719,-1.372,0,-1.3853,-1.3835,-1.3837,-1.3832,-1.3834,-1.3829,-1.3821,-1.3827,-1.3782,-1.3787,-1.3792,-1.3791,-1.379,-1.3793,-1.3787,-1.3775,-1.3741,-1.3735,-1.3743,-1.3755,-1.3767,-1.3761,-1.3617,-1.3732,-1.3731,-1.373,-1.373,-1.3729,-1.3942,-1.3956,-1.3938,-1.3941,-1.3931,-1.3924,-1.3935,-1.3912,-1.3915,-1.3911,-1.3887,-1.3896,-1.388,-1.3869,-1.386,-1.3867,-1.3845,-1.3857,-1.386,-1.3864,-1.387,-1.3765,-1.3866,-1.3865,-1.3865,-1.3864,-1.3864,0,-1.4055,-1.404,-1.4044,-1.4033,-1.4036,-1.4002,-1.3991,-1.3996,-1.4004,-1.3992,-1.3992,-1.3997,-1.3999,-1.3973,-1.3971,-1.3982,-1.3966,-1.3983,-1.3982,-1.3979,-1.389,-1.3883,-1.3995,-1.3995,-1.3995,-1.3995,-1.3995,-1.3995,-1.4114,-1.4137,-1.4117,-1.4134,-1.4119,-1.4127,-1.4124,-1.4117,-1.4107,-1.4115,-1.4116,-1.4099,-1.4081,-1.4078,-1.4078,-1.407,-1.4072,-1.4094,-1.4081,-1.3999,-1.3986,-1.3974,-1.3967,-1.4095,-1.4095,-1.4169,-1.417,-1.4171]},{"header":{"parameterUnit":"m.s-1","parameterCategory":1,"la1":30.2991,"la2":30.254,"lo1":-89.0895,"lo2":-89.0444,"dy":0.0017,"dx":0.0017,"nx":28,"ny":28,"refTime":"2023-08-25T09:00:00:Z","depth":0,"parameterNumber":3,"parameterNumberName":"V-component_of_WINDS"},"data":[0,0,0,0,0,0,0,0,0,0,0,0,0,0,0,0,0,0,0,0,0,0,0,0,0,0,0,0,0,0,0,0,0,0,0,0,0,0,0,0,0,0,0,0,0,0,0,0,0,0,0,0,0,0,0,0,0,0,-0.8114,-0.8115,0,-0.8181,-0.8182,-0.8183,-0.8239,-0.824,-0.8241,-0.8241,-0.8311,-0.8312,-0.8314,0,0,0,0,0,0,0,0,0,0,0,0,0,-0.8035,-0.8036,-0.8114,-0.8115,-0.8116,-0.8181,-0.8182,-0.8183,-0.8239,-0.824,-0.8241,-0.8241,-0.8311,-0.8312,-0.8314,0,0,0,0,0,0,0,0,0,0,0,0,0,-0.8082,-0.8036,-0.8114,-0.8152,-0.8156,-0.8181,-0.8182,-0.8183,-0.8239,-0.824,-0.8241,-0.8242,-0.831,-0.8312,-0.8314,-0.8308,0,0,-0.832,-0.8321,0,0,0,0,0,0,0,0,-0.808,-0.8085,-0.8145,-0.8149,-0.8154,-0.8203,-0.818,-0.8225,-0.8239,-0.8207,-0.8241,-0.8242,-0.8274,-0.8279,-0.829,-0.8311,-0.8314,-0.832,-0.8321,-0.8322,-0.8323,0,0,0,0,0,0,0,-0.8076,-0.8083,-0.8141,-0.8146,-0.8151,-0.8165,-0.8173,-0.8189,-0.8235,-0.821,-0.8215,-0.8222,-0.8277,-0.8288,-0.8292,-0.8315,-0.832,-0.8322,-0.8323,-0.8324,-0.8333,-0.8332,0,0,0,0,0,0,-0.8067,-0.808,-0.8139,-0.8143,-0.8118,-0.8166,-0.8175,-0.8186,-0.8235,-0.8243,-0.8221,-0.8224,-0.8284,-0.829,-0.8295,-0.829,-0.8322,-0.8324,-0.8325,-0.8334,-0.8333,-0.8332,0,0,0,0,0,0,-0.8065,-0.8072,-0.8136,-0.8112,-0.8122,-0.8167,-0.8179,-0.8187,-0.8198,-0.8243,-0.8252,-0.8224,-0.8285,-0.8292,-0.8304,-0.8293,-0.8325,-0.8326,-0.8335,-0.8334,-0.8333,-0.8281,0,0,0,0,0,0,-0.8063,-0.8071,-0.8069,-0.8112,-0.8123,-0.8144,-0.8178,-0.8188,-0.8201,-0.8206,-0.8248,-0.8256,-0.8286,-0.8301,-0.8306,-0.8296,-0.8328,-0.8336,-0.8335,-0.8333,-0.8284,-0.8278,-0.8273,0,0,0,0,0,-0.806,-0.8052,-0.8068,-0.8075,-0.8121,-0.8143,-0.8149,-0.8184,-0.82,-0.8199,-0.8227,-0.8254,-0.8293,-0.8301,-0.8308,-0.8299,-0.8337,-0.8335,-0.8333,-0.8286,-0.8279,-0.8273,0,0,0,0,0,0,-0.8007,-0.8058,-0.8077,-0.8083,-0.8108,-0.8152,-0.8152,-0.8176,-0.8197,-0.8201,-0.8244,-0.8253,-0.826,-0.8281,-0.8288,-0.8295,-0.8319,-0.8318,-0.8281,-0.8275,-0.8269,-0.8264,-0.833,0,0,0,0,0,-0.7996,-0.8009,-0.8054,-0.8055,-0.8066,-0.8106,-0.8117,-0.8142,-0.817,-0.8181,-0.8211,-0.8237,-0.8255,-0.8266,-0.8285,-0.8287,-0.8296,-0.8284,-0.8278,-0.8274,-0.8272,-0.8274,-0.8269,-0.8325,-0.8325,-0.8325,0,0,-0.7974,-0.8004,-0.8009,-0.8045,-0.8067,-0.808,-0.8115,-0.8127,-0.8137,-0.8183,-0.8196,-0.8218,-0.825,-0.8256,-0.8261,-0.8274,-0.8259,-0.8271,-0.8267,-0.8268,-0.8271,-0.8266,-0.8261,-0.8324,-0.8324,-0.8324,0,0,-0.794,-0.7964,-0.7967,-0.7988,-0.8021,-0.8048,-0.8048,-0.8089,-0.8105,-0.8118,-0.8153,-0.8165,-0.8196,-0.8217,-0.8231,-0.8204,-0.8229,-0.8209,-0.8181,-0.8182,-0.8177,-0.8174,-0.8163,-0.8159,-0.8207,-0.8207,-0.8207,0,-0.7908,-0.7928,-0.7965,-0.7975,-0.7989,-0.8031,-0.8034,-0.8053,-0.8091,-0.81,-0.8114,-0.8152,-0.8177,-0.8188,-0.8182,-0.8192,-0.8194,-0.8204,-0.8175,-0.8171,-0.8169,-0.8159,-0.8155,-0.8205,-0.8205,-0.8205,-0.8205,0,-0.7887,-0.7901,-0.7899,-0.7934,-0.7948,-0.7954,-0.7992,-0.8002,-0.8026,-0.8051,-0.8063,-0.8094,-0.812,-0.8124,-0.8148,-0.8139,-0.8146,-0.8167,-0.8192,-0.816,-0.8152,-0.8148,-0.8201,-0.8202,-0.8202,-0.8203,0,0,-0.7823,-0.7877,-0.7876,-0.7891,-0.793,-0.7941,-0.7949,-0.7974,-0.7981,-0.8006,-0.8013,-0.8038,-0.8057,-0.8074,-0.81,-0.81,-0.8076,-0.8121,-0.8123,-0.8111,-0.8067,-0.8051,-0.8046,-0.8093,-0.8092,-0.8092,-0.8064,0,-0.7795,-0.7811,-0.7844,-0.785,-0.7863,-0.7901,-0.7909,-0.7933,-0.7956,-0.797,-0.7997,-0.8013,-0.8037,-0.8048,-0.805,-0.8078,-0.8067,-0.8081,-0.81,-0.81,-0.8091,-0.8042,-0.8025,-0.7998,-0.8061,-0.8061,-0.806,0,-0.7764,-0.7785,-0.7792,-0.7829,-0.7836,-0.7841,-0.7866,-0.7879,-0.7907,-0.7924,-0.7942,-0.797,-0.7981,-0.8003,-0.8018,-0.8026,-0.8036,-0.8051,-0.8051,-0.8054,-0.8078,-0.8043,-0.799,-0.7985,-0.8056,-0.8056,-0.8057,0,-0.7716,-0.7746,-0.7754,-0.7766,-0.7809,-0.7812,-0.7831,-0.786,-0.7872,-0.7894,-0.7902,-0.7925,-0.7937,-0.7954,-0.7987,-0.8001,-0.7998,-0.8024,-0.8012,-0.8011,-0.801,-0.801,-0.7957,-0.8017,-0.8017,-0.8017,-0.8017,0,-0.7681,-0.7683,-0.7732,-0.7737,-0.7741,-0.7779,-0.7781,-0.7804,-0.7829,-0.7839,-0.7874,-0.7882,-0.7926,-0.7939,-0.7965,-0.7973,-0.7979,-0.7992,-0.7999,-0.7989,-0.7987,-0.7996,-0.7999,-0.8016,-0.8016,-0.8016,-0.8016,0,-0.7627,-0.766,-0.7671,-0.7711,-0.7721,-0.7722,-0.7756,-0.7762,-0.7787,-0.7799,-0.7804,-0.7843,-0.7861,-0.7896,-0.7923,-0.7941,-0.7942,-0.7955,-0.7932,-0.7937,-0.7923,-0.7923,-0.7874,-0.7869,-0.7932,-0.7931,-0.793,0,-0.7603,-0.7605,-0.7645,-0.7654,-0.767,-0.7684,-0.7697,-0.7734,-0.7745,-0.7777,-0.7779,-0.7799,-0.7817,-0.7843,-0.7874,-0.7895,-0.7908,-0.7889,-0.7911,-0.7901,-0.7907,-0.7906,-0.7907,-0.7884,-0.7883,-0.7882,-0.7882,0,-0.7555,-0.7571,-0.7588,-0.7609,-0.7623,-0.7642,-0.7663,-0.7668,-0.771,-0.7721,-0.7739,-0.7752,-0.778,-0.7799,-0.7824,-0.7843,-0.7869,-0.7874,-0.7873,-0.7862,-0.7849,-0.7856,-0.7918,-0.7876,-0.7876,-0.7877,-0.7877,-0.7877,-0.7516,-0.7519,-0.7548,-0.7564,-0.7584,-0.7602,-0.7609,-0.7635,-0.765,-0.7675,-0.7696,-0.7711,-0.7739,-0.7775,-0.7793,-0.7806,-0.7818,-0.7816,-0.7816,-0.7814,-0.781,-0.7847,-0.781,-0.7811,-0.7811,-0.7811,-0.7811,0,-0.747,-0.7489,-0.7504,-0.7532,-0.7545,-0.7567,-0.7591,-0.7601,-0.7614,-0.7637,-0.7654,-0.7674,-0.7692,-0.7725,-0.7746,-0.775,-0.7762,-0.7754,-0.7754,-0.7758,-0.7797,-0.7796,-0.7744,-0.7744,-0.7744,-0.7744,-0.7744,-0.7744,-0.7447,-0.7455,-0.7474,-0.7491,-0.7511,-0.7526,-0.7538,-0.7555,-0.7573,-0.7594,-0.7609,-0.7629,-0.7656,-0.7679,-0.7697,-0.7706,-0.7712,-0.77,-0.7713,-0.7749,-0.7755,-0.7761,-0.7761,-0.7701,-0.7701,-0.7672,-0.7672,-0.7672]}]]